VK4ZPK-13 Weather Reports


time (UTC)temp
C
wind
direction
speed
KPH
gust
KPH
rain 1hr
cm
rain 24hr
cm
rain mn
cm
humidity
%
barometer
mb
20260509024226 23 90 4.8 14.5 0.00 0.00 0.00 63 1017.8
20260509021226 23 110 6.4 11.3 0.00 0.00 0.00 63 1018.2
20260509014226 23 97 4.8 9.7 0.00 0.00 0.00 64 1018.5
20260509011226 22 146 3.2 8.0 0.00 0.00 0.00 64 1018.9
20260509004226 21 171 3.2 9.7 0.00 0.00 0.00 65 1018.9
20260509001226 20 155 3.2 8.0 0.00 0.00 0.00 66 1019.0
20260508234226 19 162 4.8 9.7 0.00 0.00 0.00 65 1019.2
20260508231226 18 178 6.4 16.1 0.00 0.00 0.00 66 1019.3
20260508224226 17 172 4.8 12.9 0.00 0.00 0.00 67 1019.2
20260508221226 16 173 4.8 9.7 0.00 0.00 0.00 68 1018.6
20260508214226 13 176 3.2 6.4 0.00 0.00 0.00 70 1018.4
20260508211226 12 177 3.2 8.0 0.00 0.00 0.00 71 1017.9
20260508204226 12 188 3.2 9.7 0.00 0.00 0.00 71 1017.6
20260508201226 12 174 1.6 6.4 0.00 0.00 0.00 71 1017.2
20260508194226 12 148 3.2 6.4 0.00 0.00 0.00 71 1016.7
20260508191226 12 172 1.6 4.8 0.00 0.00 0.00 69 1016.5
20260508184226 13 177 3.2 6.4 0.00 0.00 0.00 69 1016.5
20260508181226 13 173 3.2 6.4 0.00 0.00 0.00 69 1016.2
20260508174226 13 177 1.6 6.4 0.00 0.00 0.00 69 1016.3
20260508171226 13 178 1.6 6.4 0.00 0.00 0.00 71 1016.2
20260508164226 13 195 1.6 6.4 0.00 0.00 0.00 73 1016.4
20260508161226 13 166 1.6 4.8 0.00 0.00 0.00 74 1016.3
20260508154226 14 176 1.6 6.4 0.00 0.00 0.00 77 1016.4
20260508151226 14 165 1.6 4.8 0.00 0.00 0.00 82 1016.5
20260508144226 14 141 1.6 1.6 0.00 0.00 0.00 86 1016.7
20260508141226 15 117 1.6 3.2 0.00 0.00 0.00 86 1016.7
20260508134226 14 128 1.6 1.6 0.00 0.00 0.00 86 1016.8
20260508131226 15 90 1.6 1.6 0.00 0.00 0.00 85 1016.9
20260508124226 15 107 1.6 1.6 0.00 0.00 0.00 84 1017.1
20260508121226 15 120 1.6 1.6 0.00 0.00 0.00 83 1017.3
20260508114226 15 90 1.6 3.2 0.00 0.00 0.00 82 1017.2
20260508111226 16 90 0.0 1.6 0.00 0.00 0.00 81 1017.1
20260508104226 16 135 0.0 1.6 0.00 0.00 0.00 79 1016.7
20260508101226 16 104 1.6 3.2 0.00 0.00 0.00 78 1016.5
20260508094226 16 90 1.6 3.2 0.00 0.00 0.00 77 1016.4
20260508091226 17 90 1.6 1.6 0.00 0.00 0.00 76 1016.1
20260508084226 17 115 1.6 3.2 0.00 0.00 0.00 75 1015.9
20260508081226 18 104 1.6 4.8 0.00 0.00 0.00 73 1015.5
20260508074226 19 100 1.6 4.8 0.00 0.00 0.00 70 1015.3
20260508071226 20 104 1.6 4.8 0.00 0.00 0.00 68 1015.1
20260508064226 21 107 3.2 6.4 0.00 0.00 0.00 64 1014.9
20260508061226 21 125 1.6 4.8 0.00 0.00 0.00 60 1014.6
20260508054226 21 120 1.6 6.4 0.00 0.00 0.00 58 1014.5
20260508051226 21 113 4.8 14.5 0.00 0.00 0.00 58 1014.5
20260508044226 21 135 1.6 8.0 0.00 0.00 0.00 58 1014.5
20260508041226 21 144 4.8 8.0 0.00 0.00 0.00 58 1015.0
20260508034226 21 155 4.8 9.7 0.00 0.00 0.00 57 1014.9
20260508031226 21 170 4.8 9.7 0.00 0.00 0.00 58 1015.0